Volver al catálogo

PSLV DEB

ActivoPO
NORAD 27153·DEBRIS·🇮🇳 India

Lanzado Oct 22, 2001 desde Satish Dhawan Space Centre

Loading…

Próximos Pases (próximas 24 horas)

TLE

ActualizadoSource: Space-Track

Época: Sep 14, 2026, 07:13 UTC

1 27153U 01049CZ  26257.30117065  .00287860  00000-0  10117-2 0  9990
2 27153  97.8161  15.8346 0003070 198.0364 162.0798 15.88470399345537

Sigue PSLV DEB en tiempo real con AllMySat

Download on the App Store